Date String (YYYY-MM-DD hh:mm:ss) UTC,Instrument flags,Ambient pressure (hPa),Sample flow (lpm),Bypass flow (lpm),Sample temperature (°C),Ambient temperature (°C),ASC tube jacket temperature (°C),LED temperature (°C),Box temperature (°C),Sample RH (%),Span deviation,Mass concentration (μg/m³),Mass concentration (μg/m³),Mass concentration (μg/m³)
DateTimeUTC,F1_M11,P_M11,Q1_M11,Q2_M11,T1_M11,T2_M11,T3_M11,T4_M11,T5_M11,U1_M11,ZSPAN_M11,X0_M11,X2_M11,X1_M11
2021-08-22 23:00:00,,0824.0,4.99,0.00,29.2,26.7,00.0,38.2,30.7,13.7,0001.1,0019.61,0014.10,0013.60
2021-08-22 23:01:00,,0824.0,5.01,0.00,29.0,25.6,00.0,38.2,30.4,14.5,0001.1,0019.86,0014.19,0013.68
2021-08-22 23:02:00,,0824.1,5.00,0.00,29.0,26.0,00.0,38.1,30.4,14.7,0001.2,0019.79,0014.21,0013.71
2021-08-22 23:03:00,,0824.0,4.98,0.00,29.0,26.4,00.0,38.1,30.6,14.4,0001.5,0019.00,0014.17,0013.71
2021-08-22 23:04:00,,0824.0,5.01,0.00,29.0,26.8,00.0,38.1,30.7,13.7,0001.4,0019.11,0014.14,0013.69
2021-08-22 23:05:00,,0824.0,5.00,0.00,29.0,27.2,00.0,38.1,30.8,13.8,0001.4,0019.59,0014.05,0013.59
2021-08-22 23:06:00,,0824.0,4.99,0.00,29.1,27.6,00.0,38.1,30.9,14.7,0001.3,0019.43,0013.91,0013.47
2021-08-22 23:07:00,,0824.1,5.00,0.00,29.1,27.9,00.0,38.1,31.0,14.8,0001.2,0019.57,0013.77,0013.33
2021-08-22 23:08:00,,0824.1,5.00,0.00,29.2,28.2,00.0,38.1,31.1,14.3,0001.0,0019.64,0013.62,0013.20
2021-08-22 23:09:00,,0824.1,5.00,0.00,29.3,28.4,00.0,38.2,31.2,14.1,0001.0,0019.66,0013.53,0013.06
2021-08-22 23:10:00,,0824.0,5.01,0.00,29.3,28.1,00.0,38.2,31.1,14.2,0000.8,0019.58,0013.36,0012.91
2021-08-22 23:11:00,,0824.0,5.00,0.00,29.2,26.3,00.0,38.2,30.7,13.6,0000.7,0019.18,0013.21,0012.75
2021-08-22 23:12:00,,0824.0,5.00,0.00,29.1,25.8,00.0,38.2,30.5,14.0,0001.0,0019.62,0013.04,0012.59
2021-08-22 23:13:00,,0824.1,5.00,0.00,29.0,26.3,00.0,38.2,30.6,14.6,0000.8,0019.74,0012.97,0012.50
2021-08-22 23:14:00,,0824.0,4.99,0.00,29.0,26.7,00.0,38.1,30.7,14.8,0000.7,0019.76,0012.92,0012.39
2021-08-22 23:15:00,,0824.0,5.01,0.00,29.1,27.1,00.0,38.1,30.8,14.5,0000.7,0019.42,0012.83,0012.30
2021-08-22 23:16:00,,0824.0,4.99,0.00,29.1,27.5,00.0,38.1,30.9,14.7,0000.7,0018.81,0012.74,0012.23
2021-08-22 23:17:00,,0824.1,5.01,0.00,29.2,27.9,00.0,38.1,31.0,14.7,0000.8,0018.61,0012.65,0012.15
2021-08-22 23:18:00,,0824.1,5.01,0.00,29.2,28.2,00.0,38.2,31.1,15.5,0000.9,0018.21,0012.56,0012.07
2021-08-22 23:19:00,,0824.0,5.00,0.00,29.3,28.4,00.0,38.2,31.2,14.7,0000.7,0018.07,0012.50,0012.01
2021-08-22 23:20:00,,0824.1,5.00,0.00,29.4,28.6,00.0,38.2,31.3,14.5,0000.7,0018.16,0012.44,0011.98
2021-08-22 23:21:00,,0824.1,4.99,0.00,29.4,27.7,00.0,38.2,31.1,14.9,0000.8,0017.95,0012.39,0011.95
2021-08-22 23:22:00,,0824.0,5.02,0.00,29.2,26.1,00.0,38.2,30.6,14.6,0001.0,0017.83,0012.39,0011.96
2021-08-22 23:23:00,,0824.0,4.99,0.00,29.1,26.0,00.0,38.2,30.5,15.3,0001.1,0017.08,0012.46,0012.01
2021-08-22 23:24:00,,0824.0,5.01,0.00,29.1,26.5,00.0,38.2,30.7,14.7,0001.0,0016.95,0012.48,0012.05
2021-08-22 23:25:00,,0824.0,5.00,0.00,29.1,26.9,00.0,38.2,30.8,14.1,0001.0,0017.01,0012.53,0012.14
2021-08-22 23:26:00,,0824.0,5.00,0.00,29.1,27.3,00.0,38.2,30.9,14.5,0001.1,0017.03,0012.56,0012.19
2021-08-22 23:27:00,,0824.0,4.99,0.00,29.2,27.7,00.0,38.2,31.0,13.9,0001.2,0016.97,0012.56,0012.21
2021-08-22 23:28:00,,0824.0,5.01,0.00,29.2,28.0,00.0,38.2,31.1,13.7,0001.1,0017.64,0012.58,0012.23
2021-08-22 23:29:00,,0824.0,5.00,0.00,29.3,28.3,00.0,38.2,31.2,14.4,0001.0,0018.20,0012.61,0012.26
2021-08-22 23:30:00,,0824.0,5.00,0.00,29.4,28.6,00.0,38.3,31.3,14.0,0001.2,0018.82,0012.65,0012.27
2021-08-22 23:31:00,,0824.0,5.00,0.00,29.4,27.8,00.0,38.3,31.1,14.4,0001.1,0018.60,0012.64,0012.25
2021-08-22 23:32:00,,0824.0,4.99,0.00,29.2,26.1,00.0,38.3,30.6,13.9,0001.2,0018.53,0012.63,0012.25
2021-08-22 23:33:00,,0824.0,5.01,0.00,29.1,25.9,00.0,38.3,30.5,14.5,0001.3,0018.59,0012.61,0012.23
2021-08-22 23:34:00,,0824.0,5.00,0.00,29.1,26.4,00.0,38.2,30.7,14.3,0001.1,0018.53,0012.56,0012.18
2021-08-22 23:35:00,,0824.0,4.99,0.00,29.1,26.8,00.0,38.2,30.8,14.6,0001.3,0018.58,0012.51,0012.12
2021-08-22 23:36:00,,0824.0,5.00,0.00,29.1,27.3,00.0,38.2,30.9,15.0,0001.3,0018.46,0012.43,0012.03
2021-08-22 23:37:00,,0824.0,5.01,0.00,29.2,27.6,00.0,38.2,31.0,14.0,0001.4,0018.65,0012.39,0011.97
2021-08-22 23:38:00,,0824.0,5.00,0.00,29.2,28.0,00.0,38.2,31.1,13.5,0001.4,0018.48,0012.32,0011.91
2021-08-22 23:39:00,,0824.1,5.00,0.00,29.3,28.3,00.0,38.2,31.2,14.1,0001.5,0017.95,0012.30,0011.86
2021-08-22 23:40:00,,0824.1,5.00,0.00,29.4,28.5,00.0,38.3,31.3,14.2,0001.7,0017.49,0012.31,0011.82
2021-08-22 23:41:00,,0824.0,5.01,0.00,29.4,28.1,00.0,38.3,31.2,14.5,0001.8,0016.74,0012.26,0011.80
2021-08-22 23:42:00,,0824.1,4.99,0.00,29.3,26.3,00.0,38.3,30.6,14.2,0001.8,0016.65,0012.27,0011.80
2021-08-22 23:43:00,,0824.0,5.01,0.00,29.1,25.9,00.0,38.2,30.5,14.1,0001.5,0016.69,0012.27,0011.78
2021-08-22 23:44:00,,0824.1,5.00,0.00,29.1,26.3,00.0,38.2,30.6,15.0,0001.1,0017.25,0012.24,0011.75
2021-08-22 23:45:00,,0824.1,5.00,0.00,29.1,26.7,00.0,38.2,30.7,14.9,0001.2,0017.55,0012.19,0011.70
2021-08-22 23:46:00,,0824.1,4.99,0.00,29.1,27.1,00.0,38.2,30.8,15.3,0001.1,0017.47,0012.14,0011.66
2021-08-22 23:47:00,,0824.1,5.00,0.00,29.2,27.6,00.0,38.2,31.0,14.9,0001.2,0017.43,0012.10,0011.60
2021-08-22 23:48:00,,0824.1,4.99,0.00,29.2,27.9,00.0,38.2,31.1,14.4,0001.3,0017.12,0012.03,0011.52
2021-08-22 23:49:00,,0824.1,5.02,0.00,29.3,28.2,00.0,38.2,31.2,14.6,0001.1,0017.03,0011.97,0011.46
2021-08-22 23:50:00,,0824.1,4.99,0.00,29.3,28.5,00.0,38.3,31.3,14.3,0000.9,0016.86,0011.89,0011.40
2021-08-22 23:51:00,,0824.1,5.01,0.00,29.4,28.7,00.0,38.3,31.3,13.9,0001.1,0016.84,0011.84,0011.37
2021-08-22 23:52:00,,0824.1,4.99,0.00,29.4,27.5,00.0,38.3,31.0,13.5,0001.1,0018.08,0011.78,0011.33
2021-08-22 23:53:00,,0824.1,5.01,0.00,29.2,25.9,00.0,38.3,30.6,14.6,0001.2,0018.00,0011.72,0011.29
2021-08-22 23:54:00,,0824.1,4.99,0.00,29.1,26.0,00.0,38.3,30.6,14.7,0001.1,0017.95,0011.66,0011.26
2021-08-22 23:55:00,,0824.1,5.00,0.00,29.1,26.4,00.0,38.3,30.7,14.8,0001.6,0017.79,0011.64,0011.22
2021-08-22 23:56:00,,0824.1,5.00,0.00,29.1,26.9,00.0,38.2,30.8,14.2,0002.0,0017.28,0011.60,0011.20
2021-08-22 23:57:00,,0824.1,4.99,0.00,29.2,27.3,00.0,38.2,30.9,15.2,0002.1,0017.46,0011.58,0011.18
2021-08-22 23:58:00,,0824.2,5.00,0.00,29.2,27.7,00.0,38.2,31.0,14.5,0001.8,0017.93,0011.57,0011.18
2021-08-22 23:59:00,,0824.2,5.00,0.00,29.3,28.1,00.0,38.2,31.2,14.3,0001.7,0018.49,0011.59,0011.21
